HIMAWARI 4 (GMS 4)

导读

HIMAWARI 4(又称GMS 4)是日本于1989年9月5日发射的静止气象卫星,是日本“向日葵”(Himawari)系列地球静止气象卫星的第四颗,属于世界气象组织全球气象监测计划的组成部分。卫星采用自旋稳定设计,入轨质量约325千克,定位于东经140度附近、高度约35800公里的地球静止轨道,持续提供亚太区域气象云图观测,为天气监测预报提供重要数据支撑,是全球气象观测网络的关键节点。

Basic Information
目录编号:
20217
目录名称:
HIMAWARI 4 (GMS 4)
国际标识:
1989-070A
轨道中心:
EARTH
卫星名称:
HIMAWARI 4 (GMS 4)
卫星全名:
--
卫星状态:
在轨 (已飞行13430 天)
发射日期:
1989-09-05 UTC
国别 :
日本 (JP)
星等 :
--
Orbit Information
数据来源 国际轨道数据
星历时间: 2026-06-12T13:33:41+0800
21小时前
查看轨道信息
半长轴: 42985.837km
偏心率: 0.0044965
轨道倾角: 14.797°
近地点辐角 145.686°
升交点赤经 346.877°
平近点角 44.564°
近地点: 36414.414km
远地点: 36800.986km
周期: 1478.250分钟
每日圈数: 0.974125
Detailed Information
使用方式:
暂无
2D Orbit Map
3D Orbit Map
Orbit Altitude Analysis Chart
Orbit Inclination Analysis Chart
Orbit Comprehensive Analysis Chart
View Comprehensive Chart